Miscellaneous Local Product
Issued by NWS North Platte, NE

Home | Current Version | Previous Version | Graphics & Text | Print | Product List | Glossary On
Versions: 1 2 3 4 5 6 7 8 9 10 11 12 13 14 15 16 17 18 19 20 21 22 23 24 25 26 27 28 29 30 31 32 33 34 35 36 37 38 39 40 41 42 43 44 45 46 47 48 49 50
000
AXUS43 KLBF 220310
MISLBF


WESTERN AND NORTH CENTRAL NEBRASKA HOURLY WEATHER ROUNDUP
NATIONAL WEATHER SERVICE NORTH PLATTE NE
1000 PM CDT MON AUG 21 2017

NOTE: "FAIR" INDICATES FEW OR NO CLOUDS BELOW 12,000 FEET WITH NO
SIGNIFICANT WEATHER AND/OR OBSTRUCTIONS TO VISIBILITY.

NOTE: STATIONS NOT REPORTING VARIABLES SUCH AS SKY/WEATHER OR
PRESSURE ARE PROVIDED BY RAWS AND APRS NETWORKS AND ARE NOT UNDER
NATIONAL WEATHER SERVICE QUALITY CONTROL.

...OBSERVATIONS IN AND NEAR THE EASTERN PANHANDLE OF NEBRASKA...

CITY           SKY/WX    TMP DP  RH WIND       PRES   REMARKS
GORDON         FAIR      59  46  62 CALM      30.18R
CHADRON        CLEAR     65  45  48 CALM      30.17R
ALLIANCE       CLEAR     61  49  64 N10       30.18R
SIDNEY         CLEAR     66  50  56 NE7       30.20R
$$

...OBSERVATIONS IN NORTHERN NEBRASKA AND FAR SOUTHERN SOUTH DAKOTA...

CITY           SKY/WX    TMP DP  RH WIND       PRES   REMARKS
WINNER         FAIR      65  57  75 N7        30.09R
VALENTINE      CLEAR     70  51  51 N10       30.11R
THEDFORD       CLEAR     69  62  78 N7        30.12R
AINSWORTH      CLEAR     65  65  97 N3        30.10R
O`NEILL        CLEAR     65  65 100 CALM      30.06R
ORD            CLOUDY    68  63  84 NE9       30.04R
BROKEN BOW     MOCLDY    73  65  75 N13       30.06R
VALENTINE NWR    N/A     67  60  79 MISG        N/A
HALSEY           N/A     68  64  86 N3          N/A
BUTTE            N/A     66  64  92 W3          N/A
CHAMBERS         N/A     64  61  91 CALM        N/A
EWING            N/A     63  61  94 CALM        N/A
$$

...OBSERVATIONS IN SOUTHWEST NEBRASKA AND FAR NORTHEAST COLORADO...

CITY           SKY/WX    TMP DP  RH WIND       PRES   REMARKS
HOLYOKE        FAIR      72  63  73 NE10      30.15R
IMPERIAL       CLEAR     70  65  84 N8        30.11R
OGALLALA       CLEAR     70  63  78 CALM      30.13R
NORTH PLATTE   CLEAR     71  66  84 N9        30.08R
MCCOOK         PTCLDY    77  68  73 N23       30.03R
LEXINGTON      CLOUDY    75  67  75 NE8       30.05R
STAPLETON        N/A     68  64  85 CALM        N/A
GOTHENBURG       N/A     75  62  64 N8          N/A
CALLAWAY         N/A     73  66  80 N10         N/A
$$

...OBSERVATIONS IN CENTRAL LINCOLN COUNTY AREA...

CITY           SKY/WX    TMP DP  RH WIND       PRES   REMARKS
N.P. AIRPORT   CLEAR     71  66  84 N9        30.08R
N.P. DOWNTOWN    N/A     71  65  83 NE3G12      N/A
N.P. SOUTHEAST   N/A     71  65  81 N5G13       N/A
N.P. HILLCREST   N/A     69  65  87 NE9         N/A
$$

...SOME OBSERVATIONS FROM AROUND THE REGION...

CITY           SKY/WX    TMP DP  RH WIND       PRES   REMARKS
DENVER         CLOUDY    68  51  54 E9        30.25R
LIMON          CLEAR     64  56  75 N7        30.24R
ASPEN          CLOUDY    66  41  40 SE13      30.37R
LARAMIE        CLEAR     62  37  39 E9        30.34R
CASPER         CLEAR     69  36  29 E14       30.23R
CHEYENNE       PTCLDY    62  46  55 E7        30.31R
SCOTTSBLUFF    CLEAR     66  48  52 NE7       30.18R
GRAND ISLAND   CLOUDY    71  67  87 NE16G25   30.03R
OMAHA          RAIN      67  62  84 E10       30.00R
SIOUX FALLS    PTCLDY    67  66  97 W3        29.99R
PIERRE         CLEAR     67  50  54 N14       30.07R
RAPID CITY     CLEAR     62  40  44 NE9       30.18R
BISMARCK       PTCLDY    61  46  57 W3        30.11R
KANSAS CITY    TSTM      69  68  96 N7        30.01F FOG
HILL CITY      CLEAR     76  67  73 N8        29.96R
WICHITA        PTCLDY    77  74  90 S9        29.95R
DODGE CITY     CLEAR     78  65  63 S12       30.01R
OKLAHOMA CITY  PTCLDY    79  70  74 S8        30.03R
DALLAS         PTCLDY    87  71  58 SE13      30.03R HX  93
AMARILLO       CLEAR     72  65  78 S12       30.14R
$$




USA.gov is the U.S. government's official web portal to all federal, state and local government web resources and services.